Gambell, AK

1:25 PM AKST on February 26, 2017 (GMT -0900)
Gambell

Weather History for PAGM - October, 2013

Change the Weather History Date:

Friday, October 18, 2013

  Actual Average Record
Temperature  
Mean Temperature 32 °F -  
Max Temperature 35 °F 31 °F 44 °F (2004)
Min Temperature 30 °F 27 °F 24 °F (2012)
Degree Days  
Heating Degree Days 32    
Moisture  
Dew Point 28 °F    
Average Humidity 82    
Maximum Humidity 93    
Minimum Humidity 70    
Precipitation  
Precipitation 0.00 in - - ()
Sea Level Pressure  
Sea Level Pressure 29.30 in    
Wind  
Wind Speed 17 mph (ENE)    
Max Wind Speed 38 mph    
Max Gust Speed 45 mph    
Visibility 10 miles    
Events      
Averages and records for this station are not official NWS values.
T = Trace of Precipitation, MM = Missing Value Source: NWS Daily Summary

Daily Weather History Graph

Daily Weather History Graph

Search for Another Location

Airport or City:

Trip Planner

Search our weather history database for the weather conditions in past years. The results will help you decide how hot, cold, wet, or windy it might be!

Date:

Astronomy

Oct. 18, 2013 Rise Set
Actual Time 10:26 AM AKDT 7:56 PM AKDT
Civil Twilight 9:37 AM AKDT 8:44 PM AKDT
Nautical Twilight 8:43 AM AKDT 9:39 PM AKDT
Astronomical Twilight 7:48 AM AKDT 10:33 PM AKDT
Moon 7:41 PM AKDT (10/18) 10:22 AM AKDT (10/18)
Length of Visible Light 11h 06m
Length of Day
9h 29m
Full, 100% of the Moon is Illuminated
Oct 18
Full
Oct 18
Full
Oct 26
Last Quarter
Nov 3
New
Nov 9
First Quarter

Hourly Weather History & Observations

Time (AKDT) Temp. Windchill Dew Point Humidity Pressure Visibility Wind Dir Wind Speed Gust Speed Precip Events Conditions
12:16 AM 32.0 °F 22.5 °F 28.4 °F 87% 29.38 in 9.0 mi SSW 12.7 mph - N/A   Overcast
12:36 AM 32.0 °F 21.6 °F 28.4 °F 87% 29.38 in 10.0 mi SSW 15.0 mph - N/A   Mostly Cloudy
12:56 AM 32.0 °F 21.2 °F 28.4 °F 87% 29.38 in 10.0 mi SSW 16.1 mph - N/A   Mostly Cloudy
1:16 AM 32.0 °F 22.5 °F 28.4 °F 87% 29.38 in 10.0 mi SSW 12.7 mph - N/A   Mostly Cloudy
1:36 AM 32.0 °F 23.0 °F 26.6 °F 80% 29.38 in 10.0 mi SSW 11.5 mph - N/A   Mostly Cloudy
1:56 AM 32.0 °F 23.0 °F 26.6 °F 80% 29.38 in 10.0 mi South 11.5 mph - N/A   Mostly Cloudy
2:16 AM 32.0 °F 23.0 °F 26.6 °F 80% 29.38 in 10.0 mi South 11.5 mph - N/A   Overcast
2:36 AM 30.2 °F 21.3 °F 28.4 °F 93% 29.38 in 10.0 mi SSE 10.4 mph - N/A   Overcast
2:56 AM 30.2 °F 21.3 °F 28.4 °F 93% 29.38 in 10.0 mi SSE 10.4 mph - N/A   Overcast
3:16 AM 30.2 °F 21.3 °F 28.4 °F 93% 29.38 in 10.0 mi SSE 10.4 mph - N/A   Overcast
3:36 AM 30.2 °F 21.3 °F 26.6 °F 86% 29.38 in 10.0 mi SSE 10.4 mph - N/A   Overcast
3:56 AM 30.2 °F 21.9 °F 26.6 °F 86% 29.37 in 10.0 mi SSE 9.2 mph - N/A   Scattered Clouds
4:16 AM 30.2 °F 21.3 °F 26.6 °F 86% 29.37 in 10.0 mi SSE 10.4 mph - N/A   Clear
4:36 AM 30.2 °F 21.3 °F 26.6 °F 86% 29.37 in 10.0 mi SE 10.4 mph - N/A   Partly Cloudy
4:56 AM 30.2 °F 21.9 °F 26.6 °F 86% 29.37 in 10.0 mi SSE 9.2 mph - N/A   Partly Cloudy
5:16 AM 30.2 °F 21.9 °F 26.6 °F 86% 29.37 in 10.0 mi SE 9.2 mph - N/A   Clear
5:36 AM 30.2 °F 21.9 °F 26.6 °F 86% 29.37 in 10.0 mi SE 9.2 mph - N/A   Clear
5:56 AM 30.2 °F 24.3 °F 24.8 °F 80% 29.36 in 10.0 mi ESE 5.8 mph - N/A   Clear
6:16 AM 30.2 °F 25.4 °F 24.8 °F 80% 29.36 in 10.0 mi East 4.6 mph - N/A   Clear
6:36 AM 30.2 °F 24.3 °F 24.8 °F 80% 29.36 in 10.0 mi East 5.8 mph - N/A   Scattered Clouds
6:56 AM 30.2 °F 22.6 °F 26.6 °F 86% 29.36 in 10.0 mi East 8.1 mph - N/A   Mostly Cloudy
7:16 AM 32.0 °F 23.6 °F 24.8 °F 75% 29.35 in 10.0 mi East 10.4 mph - N/A   Mostly Cloudy
7:36 AM 32.0 °F 23.0 °F 26.6 °F 80% 29.35 in 10.0 mi East 11.5 mph - N/A   Mostly Cloudy
7:56 AM 32.0 °F 23.0 °F 26.6 °F 80% 29.35 in 10.0 mi ENE 11.5 mph - N/A   Mostly Cloudy
8:16 AM 32.0 °F 22.5 °F 26.6 °F 80% 29.35 in 10.0 mi ENE 12.7 mph - N/A   Overcast
8:36 AM 32.0 °F 23.0 °F 26.6 °F 80% 29.35 in 10.0 mi ENE 11.5 mph - N/A   Overcast
8:56 AM 32.0 °F 22.5 °F 26.6 °F 80% 29.35 in 9.0 mi ENE 12.7 mph - N/A   Overcast
9:16 AM 32.0 °F 22.5 °F 26.6 °F 80% 29.35 in 10.0 mi ENE 12.7 mph - N/A   Mostly Cloudy
9:36 AM 33.8 °F 24.3 °F 26.6 °F 75% 29.34 in 10.0 mi ENE 13.8 mph - N/A   Overcast
9:56 AM 32.0 °F 21.6 °F 28.4 °F 87% 29.34 in 6.0 mi ENE 15.0 mph - N/A   Overcast
10:16 AM 32.0 °F 23.0 °F 28.4 °F 87% 29.34 in 10.0 mi NE 11.5 mph - N/A   Overcast
10:36 AM 33.8 °F 23.2 °F 28.4 °F 81% 29.33 in 10.0 mi ENE 17.3 mph - N/A   Mostly Cloudy
10:56 AM 32.0 °F 21.6 °F 28.4 °F 87% 29.33 in 10.0 mi ENE 15.0 mph - N/A   Mostly Cloudy
11:16 AM 33.8 °F 23.5 °F 28.4 °F 81% 29.33 in 10.0 mi NE 16.1 mph - N/A   Mostly Cloudy
11:36 AM 33.8 °F 22.8 °F 28.4 °F 81% 29.32 in 10.0 mi NE 18.4 mph - N/A   Mostly Cloudy
11:56 AM 33.8 °F 22.5 °F 28.4 °F 81% 29.32 in 10.0 mi NE 19.6 mph - N/A   Scattered Clouds
12:16 PM 33.8 °F 21.9 °F 28.4 °F 81% 29.32 in 5.0 mi NE 21.9 mph - N/A   Mostly Cloudy
12:36 PM 33.8 °F 21.6 °F 24.8 °F 70% 29.32 in 10.0 mi ENE 23.0 mph - N/A   Mostly Cloudy
12:56 PM 33.8 °F 22.5 °F 24.8 °F 70% 29.32 in 10.0 mi ENE 19.6 mph - N/A   Mostly Cloudy
1:16 PM 33.8 °F 22.2 °F 26.6 °F 75% 29.31 in 10.0 mi NE 20.7 mph - N/A   Overcast
1:36 PM 33.8 °F 21.9 °F 26.6 °F 75% 29.31 in 10.0 mi NE 21.9 mph - N/A   Overcast
1:56 PM 33.8 °F 22.2 °F 26.6 °F 75% 29.31 in 10.0 mi NE 20.7 mph 26.5 mph N/A   Overcast
2:16 PM 33.8 °F 21.6 °F 26.6 °F 75% 29.30 in 10.0 mi NE 23.0 mph 27.6 mph N/A   Overcast
2:36 PM 33.8 °F 21.9 °F 26.6 °F 75% 29.30 in 10.0 mi NE 21.9 mph - N/A   Overcast
2:56 PM 33.8 °F 21.0 °F 28.4 °F 81% 29.29 in 10.0 mi NE 25.3 mph 29.9 mph N/A   Overcast
3:16 PM 33.8 °F 20.5 °F 28.4 °F 81% 29.28 in 10.0 mi NE 27.6 mph 31.1 mph N/A   Overcast
3:36 PM 33.8 °F 20.8 °F 28.4 °F 81% 29.28 in 8.0 mi NE 26.5 mph 31.1 mph N/A   Overcast
3:56 PM 33.8 °F 21.3 °F 28.4 °F 81% 29.27 in 10.0 mi NE 24.2 mph - N/A   Overcast
4:16 PM 33.8 °F 20.3 °F 28.4 °F 81% 29.26 in 10.0 mi NNE 28.8 mph - N/A   Overcast
4:36 PM 33.8 °F 20.1 °F 26.6 °F 75% 29.25 in 10.0 mi NE 29.9 mph - N/A   Overcast
4:56 PM 33.8 °F 20.5 °F 28.4 °F 81% 29.25 in 10.0 mi NE 27.6 mph 33.4 mph N/A   Overcast
5:16 PM 33.8 °F 20.3 °F 28.4 °F 81% 29.24 in 10.0 mi NE 28.8 mph 34.5 mph N/A   Overcast
5:36 PM 33.8 °F 20.5 °F 28.4 °F 81% 29.24 in 10.0 mi NE 27.6 mph 39.1 mph N/A   Overcast
5:56 PM 33.8 °F 20.1 °F 28.4 °F 81% 29.23 in 10.0 mi NE 29.9 mph 34.5 mph N/A   Overcast
6:16 PM 33.8 °F 19.9 °F 28.4 °F 81% 29.22 in 10.0 mi NE 31.1 mph 34.5 mph N/A   Overcast
6:36 PM 33.8 °F 20.1 °F 28.4 °F 81% 29.23 in 10.0 mi NE 29.9 mph 38.0 mph N/A   Overcast
6:56 PM 33.8 °F 20.5 °F 28.4 °F 81% 29.22 in 10.0 mi NNE 27.6 mph - N/A   Overcast
7:16 PM 33.8 °F 19.6 °F 28.4 °F 81% 29.22 in 10.0 mi NE 32.2 mph 36.8 mph N/A   Overcast
7:36 PM 33.8 °F 19.4 °F 28.4 °F 81% 29.21 in 10.0 mi NNE 33.4 mph 39.1 mph N/A   Overcast
7:56 PM 33.8 °F 19.9 °F 26.6 °F 75% 29.21 in 10.0 mi NNE 31.1 mph 39.1 mph N/A   Overcast
8:16 PM 35.6 °F 21.9 °F 28.4 °F 75% 29.20 in 10.0 mi NNE 33.4 mph 39.1 mph N/A   Overcast
8:36 PM 35.6 °F 22.5 °F 28.4 °F 75% 29.20 in 10.0 mi NNE 29.9 mph 38.0 mph N/A   Overcast
8:56 PM 35.6 °F 23.0 °F 28.4 °F 75% 29.20 in 10.0 mi NNE 27.6 mph 36.8 mph N/A   Overcast
9:16 PM 33.8 °F 19.9 °F 30.2 °F 87% 29.19 in 9.0 mi NNE 31.1 mph 39.1 mph N/A   Overcast
9:36 PM 33.8 °F 19.4 °F 30.2 °F 87% 29.19 in 7.0 mi NNE 33.4 mph 40.3 mph N/A   Overcast
9:56 PM 33.8 °F 19.4 °F 32.0 °F 93% 29.18 in 6.0 mi NNE 33.4 mph 40.3 mph N/A   Overcast
10:16 PM 33.8 °F 19.6 °F 32.0 °F 93% 29.17 in 8.0 mi NNE 32.2 mph 39.1 mph N/A   Overcast
10:36 PM 33.8 °F 19.0 °F 32.0 °F 93% 29.17 in 7.0 mi NNE 35.7 mph 41.4 mph N/A   Overcast
10:56 PM 33.8 °F 19.4 °F 30.2 °F 87% 29.16 in 10.0 mi NNE 33.4 mph 42.6 mph N/A   Overcast
11:16 PM 35.6 °F 21.9 °F 32.0 °F 87% 29.16 in 8.0 mi NNE 33.4 mph 42.6 mph N/A   Overcast
11:36 PM 35.6 °F 21.3 °F 32.0 °F 87% 29.16 in 7.0 mi NNE 36.8 mph 43.7 mph N/A   Overcast
11:56 PM 35.6 °F 21.1 °F 32.0 °F 87% 29.16 in 5.0 mi NNE 38.0 mph 44.9 mph N/A   Overcast